COSMOS 2251 DEB, 33791

Orbit data source: Space-Track

COSMOS 2251 DEB, 33791 is space debris in LEO originally from a launch on Wed, 16 Jun 1993 UTC launched from the Plesetsk Missile And Space Complex (PKMTR). The debris from Iridium 33, an American commercial communications satellite, has been tracked extensively since its accidental collision with the defunct Russian satellite Cosmos 2251 in 2009. This event, occurring at high speed in low Earth orbit (LEO), generated thousands of pieces of space debris, significantly increasing the risk of further collisions. The Iridium 33 debris cloud has impacted space traffic management and orbital debris mitigation strategies, making it a subject of ongoing study in space situational awareness.

Loading next visibility...
Identifier
33791, 1993-036AG
Orbit
LEO
Country
Flag of CISCIS
Related business
Manufacturer
Unknown
Mission
Spacecraft
Bus & Motor
Unknown
Mass
Unknown
Launch date (UTC)
1993-06-16 (33 years ago)
Launch vehicle
Unknown
Launch site
Plesetsk Missile And Space Complex (PKMTR)
Object type
Payload
Rocket body
Debris
Shape & HBR
Unknown shape, 0.3 m
Radar Cross Section
Medium (>0.1 m² and <1 m²)

Expand to show TLE details & history
Last TLE update: 10 hours ago

TLE from 10 hours ago
0 COSMOS 2251 DEB
1 33791U 93036AG  26168.09752394  .00001672  00000-0  49385-3 0  9994
2 33791  74.1736  54.1149 0029134 191.1481 280.5975 14.44007548907415
Epoch: 2026-06-17T02:20Z
TLE epoch observation values (Epoch: 2026-06-17T02:20:26.068Z)
Latitude
63.69395°
Longitude
-101.12778°
Altitude
752.144 km
Speed
7.487 km/s
True Right ascension
13h 17m 21s
True Declination
63° 33' 25"
Sunlit
Object was in daylight at epoch
Visualization orbit readout
Latitude
Unknown
Longitude
Unknown
Altitude
Unknown
Speed
Unknown
Apparent Right ascension
Unknown
Apparent Declination
Unknown
Sunlit
N/A
Visualization observer readout
Local Sidereal Time
22:45:29
Azimuth
Unknown
Elevation
Unknown
Doppler factor
Unknown
Orbital elements
Apogee altitude
763.638 km
Perigee altitude
722.145 km
Semi-major axis
7,121.029 km
Eccentricity
0.00291
Inclination
74.1736°
RAAN
54.1149°
Arg. of periapsis
191.1481°
True anomaly
280.26913°
Mean anomaly
280.5975°
Eccentric anomaly
280.43333°
Mean motion
3.61184 °/min
Orbital period
99.67 mins
BSTAR
0.00049385
Loading maneuver chart data...
Computing Atmospheric mass density...

Documentation

Showing up to 5 results
|